STARLINK-1269 (45197 NORAD) Tracking and Keplerian Element Data

This shows tracking and keplerian element data for the satellite.

Feedback or suggestion? Click here.




ElementValue
Catalog45197
NameSTARLINK-1269
Epoch Orbit175
Epoch Day188.91667824
Epoch Year2020
RAAN347.168
Inclination52.9988
Eccentricity0.0001265
Argument of Perigee108.8434
Mean Anonmoly20.3943
Mean Motion15.05560949
Decay Rate0.00038317
L11 45197U 20012V 20188.91667824 .00038317 00000-0 26360-2 0 9994
L22 45197 52.9988 347.1680 0001265 108.8434 20.3943 15.05560949 1758

Live tracking and technical data element details for STARLINK-1269 (NORAD 45197). STARLINK-1269 can be tracked NOW for your location showing map with azimuth and elevation plus other details from your city location.

Track the satellite on the map from your city or location and see movement details for azimuth, elevation, latitude, longitude, range, height, and movement on the map or in text.







IsCatalogInMostPopularTable: catalog: 45197, numindb: 26
Update: records affected: 1



GetName: 45197 STARLINK-1269

Hit Count: updated at: Wed, 08 Jul 2020 03:45:27 GMT